Regional Weather Roundup
Issued by NWS

Home | Current Version | Previous Version | Graphics & Text | Print | Product List | Glossary On
Versions: 1 2 3 4 5 6 7 8 9 10 11 12 13 14 15 16 17 18 19 20 21 22 23 24 25 26 27 28 29 30 31 32 33 34 35 36 37 38 39 40 41 42 43 44 45 46 47 48 49 50
000
ASUS43 KTOP 260608
RWRKS

WEATHER ROUNDUP FOR KANSAS
NATIONAL WEATHER SERVICE GOODLAND KS
100 AM CDT WED APR 26 2017

NOTE:  "FAIR" INDICATES FEW OR NO CLOUDS BELOW 12,000 FEET WITH NO
SIGNIFICANT WEATHER AND/OR OBSTRUCTIONS TO VISIBILITY.

KSZ001>006-013>018-027>032-041>047-260700-
NORTHWEST KANSAS

CITY           SKY/WX    TMP DP  RH WIND       PRES   REMARKS
GOODLAND       CLOUDY    38  34  85 N20G26    29.74S WCI  28
6HR MIN TEMP:  37; 6HR MAX TEMP:  53;

HAYS           CLOUDY    41  35  79 N25       29.68F
HILL CITY      CLOUDY    41  35  79 N16G24    29.73S
6HR MIN TEMP:  40; 6HR MAX TEMP:  48;

RUSSELL        CLOUDY    42  35  76 N21       29.66R
6HR MIN TEMP:  42; 6HR MAX TEMP:  51;

$$

KSZ061>065-074>080-084>089-260700-
SOUTHWEST KANSAS

CITY           SKY/WX    TMP DP  RH WIND       PRES   REMARKS
DODGE CITY     CLOUDY    44  40  85 N26G32    29.65R
6HR MIN TEMP:  44; 6HR MAX TEMP:  53; 6HR PCP: TRACE;

ELKHART          N/A     47  43  87 N7          N/A
GARDEN CITY    CLOUDY    45  39  79 N28       29.68R
6HR MIN TEMP:  45; 6HR MAX TEMP:  56;

GREAT BEND     CLOUDY    42  38  85 N22G28    29.63S
PRATT          CLOUDY    40  37  86 N26G39    29.59S WCI  29
6HR MIN TEMP:  40; 6HR MAX TEMP:  50; 6HR PCP:  0.01;

$$

KSZ066>073-081>083-090>101-260700-
SOUTHEAST KANSAS

CITY           SKY/WX    TMP DP  RH WIND       PRES   REMARKS
CHANUTE        LGT RAIN  53  51  93 N14       29.44F
6HR MIN TEMP:  53; 6HR MAX TEMP:  73; 6HR PCP:  0.41;

COFFEYVILLE    TSTM      57  55  93 NW14      29.47R
6HR MIN TEMP:  57; 6HR MAX TEMP:  74; 6HR PCP:  0.73;

HUTCHINSON     CLOUDY    44  39  82 N13G24    29.61R
6HR MIN TEMP:  44; 6HR MAX TEMP:  55; 6HR PCP:  0.02;

MEDICINE LODGE   N/A     46  42  86 N13G26    29.58R
NEWTON         CLOUDY    43  41  93 N23G31    29.57F
PARSONS        LGT RAIN  56  54  93 NW10      29.47F
6HR MIN TEMP:  56; 6HR MAX TEMP:  74; 6HR PCP:  0.88;

WICHITA INTL   LGT RAIN  46  42  86 N21G32    29.57R
6HR MIN TEMP:  46; 6HR MAX TEMP:  58; 6HR PCP: TRACE;

WICHITA JABRA  CLOUDY    45  42  89 N22G28    29.56R
6HR MIN TEMP:  45; 6HR MAX TEMP:  58; 6HR PCP:  0.01;

WICHITA MCCONL CLOUDY    46  41  82 N14G28    29.57R
WINFIELD       CLOUDY    50  44  80 N20G25    29.54R
6HR MIN TEMP:  50; 6HR MAX TEMP:  68; 6HR PCP: TRACE;

$$

KSZ007>012-019>026-033>040-048>060-102>105-260700-
NORTHEAST KANSAS

CITY           SKY/WX    TMP DP  RH WIND       PRES   REMARKS
CONCORDIA      CLOUDY    42  36  79 N16G24    29.65R
6HR MIN TEMP:  42; 6HR MAX TEMP:  46;

EMPORIA        LGT RAIN  47  45  93 N15G23    29.52F
6HR MIN TEMP:  47; 6HR MAX TEMP:  67; 6HR PCP:  0.05;

LAWRENCE       CLOUDY    49  46  90 NW15G21   29.53S
6HR MIN TEMP:  49; 6HR MAX TEMP:  69; 6HR PCP:  0.16;

MANHATTAN      CLOUDY    46  40  79 N8        29.62R
6HR MIN TEMP:  46; 6HR MAX TEMP:  56; 6HR PCP: TRACE;

MARYSVILLE     CLOUDY    41  37  87 N15G24    29.61R
OLATHE IND     LGT RAIN  50  48  93 N10       29.51S
6HR MIN TEMP:  50; 6HR MAX TEMP:  70; 6HR PCP:  0.47;

OLATHE EXE     LGT RAIN  50  50 100 N12       29.50F
6HR MIN TEMP:  50; 6HR MAX TEMP:  69; 6HR PCP:  0.04;

SALINA         CLOUDY    46  38  73 N17G26    29.63R
6HR MIN TEMP:  46; 6HR MAX TEMP:  54; 6HR PCP: TRACE;

TOPEKA BILLARD LGT RAIN  48  46  93 NW14      29.55R
6HR MIN TEMP:  48; 6HR MAX TEMP:  63; 6HR PCP:  0.01;

TOPEKA FORBES  CLOUDY    49  45  86 N18       29.54F
6HR MIN TEMP:  49; 6HR MAX TEMP:  67; 6HR PCP: TRACE;

$$



USA.gov is the U.S. government's official web portal to all federal, state and local government web resources and services.